Find Starlink 31585

NORAD ID: 59608 Int'l Des: 2024-080 Owner: SPXS Country: US Constellation: starlink operational
LEOCIRCULAR

現在のビュー

3D地球を読み込み中...

About Starlink 31585

Starlink 31585 (NORAD 59608) is a starlink constellation satellite (v2 mini) launched Apr 28, 2024 by SPXS of US. It operates in LEO, CIRCULAR orbit with a mass of 730.00 kg.

Starlink 31585について

説明を読み込み中...

次回通過

Passes for default location (London). Set your location on the main map for personalized predictions.

高度履歴

Loading altitude history...

軌道要素

1 59608U 24080H 26193.02410904 .00001530 00000-0 65157-4 0 9990
2 59608 43.0011 51.7830 0001153 11.6197 348.4681 15.27562540123601
Epoch: Jul 12, 2026 • Age: 24 hours

現在のステータス

高度 482.9 km
遠地点 / 近地点 N/A
速度 7.63 km/s
衛星直下点 18.38°N, 97.32°W
打ち上げ日 Apr 28, 2024
運用期間 2.2 years
タイプ internet

技術仕様

分類 Payload
質量 730.00 kg
乾燥質量 700.00 kg
総質量 730.00 kg
長さ 0.30 m
直径 4.10 m
スパン 29.00 m
形状 Box + pan
製造者 SPXS
バスタイプ Starlink V2M
フェーズステータス In Orbit
所有者/国 SPXS/US

Most Searched